Regional Weather Roundup
Issued by NWS

Current Version | Previous Version | Text Only | Print | Product List | Glossary On
Versions: 1 2 3 4 5 6 7 8 9 10 11 12 13 14 15 16 17 18 19 20 21 22 23 24 25 26 27 28 29 30 31 32 33 34 35 36 37 38 39 40 41 42 43 44 45 46 47 48 49 50
000
ASUS42 KTBW 281917
RWRFL
FLORIDA REGIONAL WEATHER ROUNDUP
NATIONAL WEATHER SERVICE TAMPA BAY RUSKIN FL
300 PM EDT TUE JUL 28 2015

NOTE: "FAIR" INDICATES FEW OR NO CLOUDS BELOW 12,000 FEET WITH NO
SIGNIFICANT WEATHER AND/OR OBSTRUCTIONS TO VISIBILITY.


FLZ001>010-012>015-112-114-115-282000-
PANHANDLE FLORIDA

CITY           SKY/WX    TMP DP  RH WIND       PRES   REMARKS
PENSACOLA      MOSUNNY   95  71  45 SW6       29.97F HX 102
PENSACOLA NAS  MOSUNNY   95  73  48 S12       29.97F HX 104
MILTON NAS     PTSUNNY   96  72  45 N6        29.97  HX 104
CRESTVIEW      SUNNY     98  72  42 VRB6      29.98F HX 107
DUKE FIELD     PTSUNNY   79  68  69 N9        29.96F
VALPARAISO     PTSUNNY   93  74  52 CALM      29.96F HX 103
MARY ESTHER    MOSUNNY   94  72  49 S8        29.95F HX 102
TRI COUNTY     RAIN      83  71  67 NE10G36   29.98R
PANAMA CITY    FAIR      95  71  45 NW12      29.93F HX 102
TYNDALL AFB    MOSUNNY   92  78  63 W13       29.95F HX 107
APALACHICOLA   MOSUNNY   94  77  57 S13       29.95F HX 108

STATION/POSITION SKY/WX   TEMP    WIND        PRES    WAVE   SWELL
                          AIR SEA DIR/SP/G            HT/PER HT/PER
                          (F)     (DEG/KT/KT) (MB)    (FT/S) (FT/S)
30.1N   87.6W              87 87  260/  6/  6 1014.9F   1
29.2N   88.2W              86 90  340/  6/  8 1016.3F   1
28.8N   86.0W              86 87  320/ 10/ 12 1015.7    2/ 4
PANAMA CITY BEAC           84 84  300/  6/  7 1014.9F
CAPE SAN BLAS    NOT AVBL
TOWER C                    85     180/  5/  6 1015.0R
28.5N   84.5W              82 85  270/ 16/ 19 1014.6F   3/ 5

$$
FLZ011-016>038-118-127-128-134-139-239-282000-
NORTH FLORIDA

CITY           SKY/WX    TMP DP  RH WIND       PRES   REMARKS
MARIANNA       MOSUNNY   96  73  47 VRB6      29.95F HX 105
TALLAHASSEE    PTSUNNY   98  69  38 VRB5      29.95F HX 104
PERRY          MOSUNNY   91  74  55 N7        29.96F HX 100
CROSS CITY       N/A     91  76  61 NE7       29.94F HX 103
LAKE CITY      PTSUNNY   88  75  66 E6        29.95F HX  97
GAINESVILLE    CLOUDY    88  73  61 NE10      29.93F HX  95
MAYPORT NAS    PTSUNNY   87  77  72 N10       29.95S HX  99
JACKSONVILLE   PTSUNNY   88  73  61 NE13      29.93F HX  95
JAX NAS        PTSUNNY   92  72  51 NE12      29.94F HX  99
JAX CRAIG      MOSUNNY   89  75  63 NE12      29.94F HX  99
JAX CECIL      PTSUNNY   90  75  62 NE6       29.94F HX 100
FERNANDINA BEA FAIR      90  77  66 NE12      29.94S HX 102
ST AUGUSTINE   PTSUNNY   86  77  74 NE13      29.94F HX  97

STATION/POSITION SKY/WX   TEMP    WIND        PRES    WAVE   SWELL
                          AIR SEA DIR/SP/G            HT/PER HT/PER
                          (F)     (DEG/KT/KT) (MB)    (FT/S) (FT/S)
SHELL POINT                88     160/  8/ 12   N/A
KEATON BEACH               90     360/  5/ 12 1014.1F
CEDAR KEY                  88     350/  4/  5 1014.2F
FERNANDINA                 85 85   30/  5/ 11 1013.8F
30.7N   81.3W                 83                N/A     2/11
MAYPORT                    81 83   50/ 12/ 14 1014.7F
31.4N   80.9W              82 83   50/ 12/ 14 1014.5F   2/ 5   2/ 6
ST AUGUSTINE               80 82   20/ 10/ 11 1014.3F

$$
FLZ040-043>046-052-053-057-058-063-144-282000-
INTERIOR CENTRAL FLORIDA

CITY           SKY/WX    TMP DP  RH WIND       PRES   REMARKS
OCALA          MOSUNNY   90  75  62 N10       29.94F HX 100
THE VILLAGES     N/A     88  88 100 NW6G14    29.83F HX 120
LEESBURG       CLOUDY    81  77  88 SW3       29.94F
SANFORD        LGT RAIN  80  75  84 W13       29.92F
ORLANDO EXEC   HVY RAIN  79  77  94 SW15      29.93F FOG
ORLANDO INTL   RAIN      78  76  93 SW18      29.95S FOG
KISSIMMEE      RAIN      77  75  94 W15G25    29.96S HAZE
WINTER HAVEN   HVY RAIN  78  76  93 NW14      29.99R FOG
LAKELAND       CLOUDY    79  75  89 NW6       29.98S
BARTOW         PTSUNNY   81  75  83 W15G24    29.98S
OKEECHOBEE     PTSUNNY   91  73  55 SW16      29.96F HX 100

$$
FLZ041-047-054-059-064-141-147-282000-
EAST CENTRAL FLORIDA

CITY           SKY/WX    TMP DP  RH WIND       PRES   REMARKS
ORMOND BEACH   TSTM      77  75  94 MISG      29.93F FOG
DAYTONA BEACH  CLOUDY    82  76  81 SW9       29.93F
DELAND           N/A     81  77  89 CALM      29.94F
NEW SMYRNA BEA PTSUNNY   81  77  89 SW12      29.93F
JFK SPACE CTR  PTSUNNY   88  73  61 SW15      29.91F HX  96
TITUSVILLE     PTSUNNY   86  75  70 W12       29.93F HX  95
CAPE CANAVERAL PTSUNNY   90  73  58 W12       29.91F HX  98
PATRICK AFB    MOSUNNY   86  77  74 S18       29.93F HX  97
MELBOURNE      RAIN      82  76  81 W10G23    29.94S
VERO BEACH     MOSUNNY   94  73  50 SW14      29.94F HX 103
FT PIERCE      MOSUNNY   93  75  55 SW14G24   29.94F HX 104

STATION/POSITION SKY/WX   TEMP    WIND        PRES    WAVE   SWELL
                          AIR SEA DIR/SP/G            HT/PER HT/PER
                          (F)     (DEG/KT/KT) (MB)    (FT/S) (FT/S)
28.5N   80.2W              81 81  170/ 12/ 14 1014.1F
28.9N   78.5W              84 84  230/ 14/ 16 1015.6F
TRIDENT PIER               88 79  220/ 14/ 17 1014.3F
28.4N   80.5W                 78                N/A     1/11
27.5N   80.2W                 78                N/A     1/11

$$
FLZ050-056-061-142-242-148-248-149-249-151-251-155-255-
160-260-282000-
WEST CENTRAL FLORIDA

CITY           SKY/WX    TMP DP  RH WIND       PRES   REMARKS
CRYSTAL RIVER  FAIR      88  77  70 W6        29.94F HX 100
INVERNESS      CLOUDY    88  77  70 CALM      29.94S HX 100
BROOKSVILLE    PTSUNNY   84  75  74 W9        29.97F
ZEPHYRHILLS    FAIR      77  77 100 CALM      29.97F
CLEARWATER     PTSUNNY   84  75  74 W10       29.97S
TAMPA INTL     CLOUDY    84  74  71 SW9       29.98S
TAMPA EXEC     CLOUDY    82  79  89 CALM      29.98S
PLANT CITY     DRIZZLE   81  79  94 W6        29.99F
MACDILL AFB    PTSUNNY   87  79  76 W7        29.97S HX 100
PETER O KNIGHT CLOUDY    86  77  74 W6        29.97S HX  97
ST PETERSBURG  MOSUNNY   85  74  69 W13       29.96S
SARASOTA       MOSUNNY   87  77  72 W13       29.97F HX  99
VENICE         MOCLDY    82  77  83 SW13      30.00S

STATION/POSITION SKY/WX   TEMP    WIND        PRES    WAVE   SWELL
                          AIR SEA DIR/SP/G            HT/PER HT/PER
                          (F)     (DEG/KT/KT) (MB)    (FT/S) (FT/S)
CEDAR KEY                  88     350/  4/  5 1014.2F
28.5N   84.5W              82 85  270/ 16/ 19 1014.6F   3/ 5
27.3N   84.2W                 85                N/A     3/ 4
CLEARWATER BEACH           82 83  260/ 11/ 13 1015.1F
MIDDLE TAMPA BAY           82     290/ 15/ 18 1015.6F
VENICE                     82 85  220/ 12/ 13 1015.0F

$$
FLZ066-069-070-075>078-162-262-165-265-282000-
SOUTHWEST FLORIDA AND KEYS

CITY           SKY/WX    TMP DP  RH WIND       PRES   REMARKS
PUNTA GORDA    MOSUNNY   88  76  67 SW15      30.00F HX  99
FT MYERS       SUNNY     89  75  63 SW14G25   29.98F HX  99
SOUTHWEST INTL MOSUNNY   88  75  65 W14G21    30.00S HX  97
NAPLES         MOSUNNY   89  77  67 SW13      30.00F HX 101
MARCO ISLAND   MOCLDY    90  73  58 SW9G17    30.01F HX  98
MARATHON       MOSUNNY   91  78  65 VRB3      30.01F HX 106
KEY WEST NAS   PTSUNNY   92  76  59 N7        30.02F HX 104
KEY WEST INTL  MOSUNNY   88  77  69 W6        30.02F HX 100

STATION/POSITION SKY/WX   TEMP    WIND        PRES    WAVE   SWELL
                          AIR SEA DIR/SP/G            HT/PER HT/PER
                          (F)     (DEG/KT/KT) (MB)    (FT/S) (FT/S)
VENICE                     82 85  220/ 12/ 13 1015.0F
NAPLES                        85              1017.5F
26.0N   85.6W              85 85  270/  6/  6 1016.3F   1/10   2/10
DRY TORTUGAS               86      CALM  /  1 1017.2F
NW FL BAY                  86     240/  5/  6 1016.8
SAND KEY                   87     230/  1/  2 1016.9F
SOMBRERO KEY               87     220/  3/  4 1017.3F
LONG KEY                   87 88  260/  1/  2 1017.3F
MOLASSES REEF              85 88  230/  5/  6 1016.4F

$$
FLZ067-068-071>074-168-172>174-282000-
SOUTHEAST FLORIDA

CITY           SKY/WX    TMP DP  RH WIND       PRES   REMARKS
W PALM BEACH   PTSUNNY   93  70  46 SW14G22   29.98F HX  99
FT LAUDER-EXEC PTSUNNY   93  70  46 W9        29.99F HX  99
FT LAUDERDALE  CLOUDY    90  75  61 S7        29.98F HX 100
POMPANO BEACH  PTSUNNY   89  75  63 SE13      29.99F HX  99
PEMBROKE PINES PTSUNNY   97  66  36 W14       29.99F HX 100
OPA LOCKA      PTSUNNY   94  70  45 SW13      29.99F HX 100
MIAMI          PTSUNNY   91  74  57 SE8       29.99F HX 100
WEST KENDALL   MOSUNNY   95  70  44 W10       29.99F HX 101
HOMESTEAD      MOSUNNY   93  74  54 S8        29.99F HX 102

STATION/POSITION SKY/WX   TEMP    WIND        PRES    WAVE   SWELL
                          AIR SEA DIR/SP/G            HT/PER HT/PER
                          (F)     (DEG/KT/KT) (MB)    (FT/S) (FT/S)
PORT EVERGLADES            88     150/ 10/ 14 1015.6F
VIRGINIA KEY               86 87  140/ 10/ 13 1016.2F
LAKE WORTH                 85 85  160/ 15/ 16 1015.6F
SETTLEMENT POINT           85     220/ 12/ 13 1016.6F

$$




USA.gov is the U.S. government's official web portal to all federal, state and local government web resources and services.